Theta_e
300 300 300 300 300 300 300 301 302 303 304 304 304 305 306 306 306 303 299 297 296 292 292 293 294 292 292 291 288 292 291 292 291 286 287 287 286 289 288 291 291 287 287 287 286 288 285 296 299 292 293 296 293 290
300 300 300 300 300 300 300 300 301 302 303 303 304 305 306 306 305 306 298 300 302 294 293 295 298 300 298 297 293 294 292 293 294 286 288 288 287 288 286 286 293 286 289 284 286 285 290 293 292 295 295 291 291 289
300 300 300 300 300 299 300 300 301 303 303 303 304 305 306 306 306 305 301 299 298 294 294 289 290 295 301 301 302 292 296 298 297 298 294 292 286 291 285 289 290 291 293 286 287 287 288 289 290 291 291 289 290 289
300 300 300 300 300 300 300 300 301 302 302 302 303 304 305 306 306 306 299 301 298 296 288 288 296 295 301 299 300 300 298 300 299 298 295 293 288 295 289 289 288 290 290 286 285 287 289 288 288 288 288 288 287 287
299 299 299 300 300 300 300 301 301 301 302 303 304 305 306 305 305 304 302 302 302 296 289 289 294 296 297 298 299 299 299 297 295 293 293 291 296 293 294 291 285 292 288 288 286 289 286 285 288 289 287 286 286 285
299 299 299 300 300 300 300 301 301 302 303 304 305 305 306 306 305 295 293 299 298 301 292 288 291 293 297 299 297 296 296 295 294 292 293 297 299 295 288 283 287 291 292 293 287 289 288 288 288 288 285 285 285 284
299 299 299 300 300 300 301 301 302 302 303 304 305 306 306 306 302 291 290 294 300 299 294 290 287 293 294 295 294 295 295 293 291 292 292 295 295 292 288 283 287 290 290 290 290 289 286 287 284 287 286 286 287 285
299 299 299 300 300 300 301 301 302 303 304 305 305 306 306 306 303 295 297 303 299 292 297 289 287 288 294 290 289 292 291 292 291 291 294 291 295 291 284 288 291 291 291 290 289 289 287 287 287 286 286 286 284 284
298 298 299 299 300 300 301 301 302 304 305 305 305 306 299 295 292 293 305 303 296 296 291 291 287 283 292 289 288 289 290 287 291 290 291 294 291 285 288 290 291 292 290 288 289 288 288 286 286 286 285 284 283 284
298 298 299 299 300 300 301 302 302 304 305 302 296 292 288 293 304 303 295 291 295 293 297 291 289 284 289 287 286 286 287 285 283 288 294 290 289 294 295 293 292 292 291 291 287 286 287 286 286 285 285 285 284 284
298 298 299 299 300 300 301 301 303 304 299 291 289 287 293 301 294 292 290 289 292 287 290 292 288 286 291 286 284 285 282 284 281 283 286 287 286 291 293 292 292 293 292 290 290 289 288 288 286 285 284 284 283 283
298 298 299 299 300 300 301 303 304 298 291 293 297 300 297 291 289 287 285 289 290 287 292 287 289 289 289 288 285 285 283 285 282 287 285 285 290 294 295 293 291 291 291 290 290 289 289 288 287 286 285 283 283 284
298 298 299 299 300 301 302 304 303 303 301 299 297 293 287 286 279 283 279 283 283 288 290 290 287 287 287 287 284 283 286 280 288 282 284 287 294 294 293 293 291 291 290 290 289 289 288 287 286 285 283 283 283 283
298 298 299 299 300 301 302 302 302 300 297 292 286 277 283 282 284 284 287 289 291 293 293 292 287 286 288 285 284 282 285 286 282 279 283 290 294 292 293 293 291 289 290 289 288 288 287 286 285 285 284 284 283 282
298 298 299 299 300 300 301 301 302 298 291 288 286 277 283 286 287 288 292 293 294 291 290 287 287 289 288 286 284 283 283 279 281 281 287 292 294 293 291 291 291 289 289 289 288 287 286 285 284 283 283 283 283 283
298 298 296 299 300 300 301 299 297 294 296 292 287 284 285 284 285 286 287 292 295 293 288 290 289 287 287 287 283 282 283 280 282 288 291 293 292 289 290 292 292 292 290 289 288 287 287 285 284 283 283 283 283 283
298 290 297 298 299 300 300 294 294 295 294 286 285 286 285 285 285 286 292 294 296 293 289 288 285 284 289 285 285 286 284 286 290 292 290 292 289 288 289 292 293 292 290 289 289 288 286 286 285 284 283 283 283 283
291 292 297 299 299 296 293 295 292 292 286 286 281 285 286 287 287 291 294 296 295 292 292 289 292 286 283 283 283 284 284 291 295 295 293 291 292 290 291 290 292 291 289 289 289 288 287 285 284 283 283 284 283 283
294 295 299 300 297 295 291 295 295 285 287 287 287 288 288 289 292 293 296 298 297 295 293 289 287 285 283 290 289 289 288 290 292 292 291 290 292 291 291 291 291 289 288 288 287 286 287 286 285 285 285 285 283 284
299 299 299 300 299 293 291 292 297 290 284 287 288 287 289 290 292 293 295 298 296 294 290 289 289 291 291 289 293 294 294 294 292 286 286 288 290 291 290 291 289 288 288 288 288 288 287 287 286 286 287 286 285 285
294 298 299 297 297 294 289 290 291 291 289 286 287 287 287 291 291 290 293 298 294 291 286 288 288 288 289 291 291 290 294 293 292 291 289 288 288 289 289 288 289 289 288 287 286 286 286 286 287 287 287 287 287 287
289 297 292 295 294 295 293 294 289 291 286 286 286 287 286 288 287 290 293 293 292 290 290 291 293 292 291 291 292 293 293 292 289 289 290 290 288 288 288 289 289 288 287 287 286 285 285 285 287 288 287 286 287 286
295 294 291 291 291 288 284 291 288 289 284 287 290 285 286 289 292 293 288 290 290 292 293 294 296 295 295 296 295 294 294 291 288 289 290 290 290 290 290 290 290 289 288 287 287 286 285 285 285 285 285 285 285 285
296 292 290 288 288 284 289 288 290 289 286 285 284 285 289 291 293 289 285 288 290 292 293 294 294 293 293 294 293 293 292 293 290 290 291 290 289 289 290 290 290 290 290 289 287 285 285 285 285 284 284 284 284 284
287 286 288 283 289 287 285 285 286 287 284 285 285 286 287 290 286 283 284 286 289 291 292 292 293 293 293 292 292 292 292 292 291 290 290 291 289 288 288 288 288 288 288 287 286 285 284 284 284 284 284 284 283 283
282 285 284 285 285 285 286 284 284 283 285 287 286 287 288 286 285 284 286 288 289 291 291 291 292 290 291 291 289 289 290 292 292 290 290 291 290 289 288 286 285 285 287 288 287 285 284 284 283 283 283 283 283 283
280 282 285 289 288 288 286 287 286 286 284 285 284 285 285 283 284 286 290 291 292 293 295 294 292 291 291 291 290 291 291 293 293 293 292 291 290 291 290 288 287 288 288 288 287 287 285 285 284 284 283 284 284 284
284 286 282 286 285 287 287 287 287 285 285 286 286 284 284 284 284 289 291 293 294 296 296 298 298 296 292 291 291 291 290 289 289 289 289 289 289 290 290 290 290 287 289 289 288 287 287 286 285 284 284 284 283 284
284 285 285 285 287 287 285 285 286 288 290 287 285 284 286 289 291 291 292 292 293 294 295 296 296 293 290 291 291 290 290 290 289 288 288 287 287 289 288 288 288 289 289 287 284 286 287 285 285 284 285 284 284 283
282 285 283 285 286 284 287 290 289 291 291 294 293 291 291 293 294 294 293 292 292 292 293 295 297 292 290 290 289 289 289 291 291 290 288 287 288 289 287 287 287 287 287 286 284 283 282 283 283 283 283 282 282 282
286 284 284 284 284 286 289 294 294 294 294 291 293 291 289 291 292 293 293 293 292 292 293 294 294 293 292 290 289 288 288 290 291 293 291 290 288 287 287 287 286 286 286 285 285 284 283 283 283 282 282 282 282 281
284 285 284 284 283 289 293 291 291 292 292 292 290 291 292 291 290 290 292 292 292 292 291 293 296 295 293 295 294 294 288 293 293 292 291 289 288 288 288 287 286 286 286 285 285 284 284 283 282 282 282 282 282 282
284 286 286 288 288 290 292 290 289 288 289 287 287 287 286 286 285 288 293 294 294 294 294 298 300 300 298 296 295 294 291 294 292 288 287 287 287 287 287 287 287 286 285 284 283 283 283 282 281 280 279 278 277 277
Wind_Speed
9 10 12 13 15 16 17 18 19 20 21 21 20 20 19 17 16 6 5 3 2 4 13 6 4 11 12 5 5 10 8 2 3 5 3 2 2 3 1 3 7 3 2 3 2 4 4 12 7 3 11 15 17 14
10 11 13 14 16 16 17 18 19 21 21 19 20 21 20 16 14 11 3 2 2 4 10 5 17 19 15 19 7 4 5 9 3 3 2 3 2 2 2 2 7 3 3 5 6 4 7 11 13 13 13 19 14 19
11 11 12 14 16 17 17 18 20 21 21 20 20 20 20 17 15 9 3 2 2 4 6 4 5 4 6 8 8 4 3 3 5 6 3 2 2 2 2 3 4 4 5 6 4 8 11 15 17 18 20 21 18 17
11 12 13 14 14 16 17 18 20 22 22 22 21 20 20 18 14 10 2 1 1 4 4 9 3 11 10 6 10 12 10 5 6 2 1 1 1 4 3 6 5 5 4 6 9 8 17 18 15 18 21 19 22 19
11 12 13 15 15 17 17 19 20 22 23 23 23 22 20 19 14 7 4 3 4 2 3 8 14 7 9 7 12 4 7 6 4 4 2 2 1 3 3 4 8 5 4 1 5 8 14 9 11 13 22 19 18 19
12 13 13 15 16 15 18 20 21 22 23 24 24 23 21 17 10 3 3 0 3 2 3 5 5 8 12 14 10 8 3 2 1 3 4 5 4 5 4 4 10 13 18 11 9 17 20 17 16 16 20 17 16 17
11 13 14 16 17 17 19 20 21 22 24 25 25 23 20 13 2 3 4 3 3 1 2 5 6 6 6 6 5 4 5 3 3 3 5 4 9 8 5 5 9 17 20 18 16 16 16 12 12 13 17 17 19 16
11 12 14 15 17 19 21 22 22 23 23 24 25 22 12 6 3 2 2 4 4 0 2 3 6 6 5 5 5 4 5 4 7 3 3 4 4 5 8 9 12 14 15 15 17 16 18 15 14 14 12 12 14 13
11 12 14 16 16 18 20 22 23 22 24 24 21 7 2 3 2 3 7 7 1 1 2 2 3 5 6 4 3 5 3 5 3 4 4 4 6 8 4 10 8 4 9 15 15 14 13 15 12 10 10 10 13 12
12 13 16 17 18 19 19 20 22 23 25 15 5 3 2 1 11 2 3 2 1 1 1 2 0 4 3 3 4 4 3 3 4 3 3 6 5 4 2 4 10 14 14 15 17 11 10 11 9 7 8 7 9 10
13 14 15 17 19 20 21 20 19 22 10 5 5 3 4 10 2 2 1 3 2 3 2 2 3 4 2 2 3 2 1 2 4 4 4 2 3 3 5 10 8 10 7 8 10 9 8 10 10 9 9 10 10 10
12 14 15 18 18 19 20 18 16 7 2 3 4 5 3 3 3 3 2 3 2 1 3 3 4 2 4 2 3 3 2 3 1 1 4 3 3 7 4 8 8 8 12 13 11 12 10 10 8 9 9 10 9 10
11 14 15 16 18 18 18 14 15 14 7 1 2 3 2 2 6 2 3 1 3 3 2 4 5 2 5 4 2 3 4 1 2 4 2 2 2 6 6 9 10 10 14 15 12 11 11 10 9 9 10 9 10 8
10 13 15 17 16 15 14 16 17 9 2 1 1 5 2 2 0 3 1 2 3 2 4 2 3 1 3 4 1 3 2 2 3 3 2 2 3 6 8 9 14 11 12 13 11 10 10 9 9 9 8 8 8 7
13 16 16 14 10 14 16 18 16 2 2 2 1 2 2 1 3 3 3 2 1 1 2 4 3 1 2 2 1 1 3 3 1 2 2 4 7 7 7 10 12 12 10 11 10 9 9 8 8 7 6 6 7 6
13 15 2 12 15 18 19 9 1 2 2 2 3 1 1 2 4 3 2 2 0 0 0 1 3 2 2 3 3 1 1 0 1 1 2 5 6 5 8 10 10 9 8 9 8 8 8 8 8 8 7 6 6 5
10 4 6 14 18 18 12 1 0 4 2 2 3 1 2 2 4 3 2 2 0 1 2 0 2 0 2 2 1 1 0 1 2 2 3 4 7 7 6 8 9 9 8 9 9 8 7 8 8 8 7 4 5 5
3 5 13 16 13 6 2 2 2 2 4 3 1 2 3 3 2 3 3 1 1 1 2 1 2 1 2 2 2 2 1 1 2 2 4 6 6 6 7 8 7 8 8 8 8 8 8 9 7 5 6 6 6 5
7 9 17 16 4 2 2 2 2 3 4 3 3 2 2 3 3 2 1 1 1 0 1 2 2 2 3 2 2 3 3 2 3 2 3 2 6 8 6 6 7 7 8 8 8 7 7 7 6 6 6 6 5 4
17 13 11 5 7 1 2 3 1 3 3 3 2 2 2 3 1 1 2 3 2 1 0 2 3 2 2 2 2 3 4 4 4 4 2 3 3 6 8 9 6 7 6 5 5 6 4 3 4 6 6 6 6 5
7 3 6 4 2 3 2 3 3 3 2 1 2 1 3 0 1 2 2 2 1 1 2 3 2 2 2 1 3 4 4 3 2 2 3 3 2 4 5 4 6 5 4 4 4 3 4 4 4 6 7 6 4 5
3 6 2 2 2 3 3 3 3 2 1 3 3 1 2 1 2 3 3 2 2 2 3 3 3 3 3 4 4 4 4 4 4 4 6 8 4 4 4 5 5 4 4 5 4 4 3 3 4 4 5 4 4 4
5 2 2 1 2 2 6 0 2 3 2 3 1 2 2 2 1 2 0 2 3 3 3 2 2 3 4 5 5 3 4 6 4 4 4 4 3 4 4 4 4 5 4 3 3 4 4 5 5 4 4 4 4 3
4 2 2 2 4 3 1 2 3 2 2 2 2 3 2 2 2 0 2 2 2 2 3 3 3 4 3 4 3 4 4 4 4 3 3 5 4 3 3 4 3 3 3 4 4 4 4 4 5 4 4 5 4 4
1 2 1 4 2 3 3 2 3 2 3 3 2 3 2 2 2 1 2 2 2 3 3 3 4 3 4 2 1 2 4 4 5 5 4 4 4 3 2 1 1 3 4 5 4 6 4 5 4 5 5 4 7 7
2 4 4 3 3 3 3 3 4 5 2 3 4 2 1 2 1 3 3 2 3 3 4 5 5 3 2 3 4 4 4 4 4 4 4 5 5 5 5 5 3 3 4 4 6 7 7 5 6 7 6 7 6 7
3 4 3 3 3 3 2 2 1 1 3 3 1 0 1 2 3 2 2 2 2 3 3 4 5 5 4 4 2 1 4 5 4 4 3 4 4 4 4 6 6 4 6 7 6 8 9 7 6 6 5 4 5 7
4 2 3 2 2 2 2 3 2 4 3 2 2 2 2 3 3 3 4 2 1 1 1 1 2 2 4 4 4 5 4 4 6 6 5 4 3 2 4 3 2 11 6 6 6 6 6 7 6 6 5 5 4 4
4 2 1 3 3 3 5 5 3 3 3 3 3 2 3 3 2 2 2 2 1 2 1 2 1 2 4 4 4 3 7 8 8 6 7 4 2 3 2 3 3 4 4 5 4 5 8 7 7 6 5 4 3 3
4 4 3 3 3 4 4 5 3 3 2 2 1 1 1 1 2 2 3 2 1 3 3 3 1 4 4 5 5 3 2 3 2 5 7 6 6 3 4 4 4 4 4 6 6 6 8 7 7 4 4 4 3 3
2 3 3 3 3 3 3 2 1 1 1 2 2 2 2 2 2 1 2 2 2 2 1 1 3 3 5 5 5 5 4 4 4 3 3 4 5 5 5 4 4 4 4 6 7 5 6 5 5 7 6 6 5 4
3 6 4 3 3 3 1 1 1 2 2 2 2 1 2 4 2 4 1 3 2 2 5 3 3 3 5 4 4 3 3 6 7 6 9 5 6 6 6 5 5 5 5 6 5 5 8 8 7 7 6 7 6 6
3 2 3 1 2 2 2 2 1 2 1 0 1 2 3 4 4 4 2 3 4 4 4 4 3 3 5 7 7 5 5 5 7 8 9 9 10 10 7 5 5 6 8 6 6 7 8 8 6 6 6 6 6 6
Wind_Direction
290 301 308 313 320 324 324 326 327 324 327 330 328 324 322 327 327 335 283 201 224 281 287 260 247 289 296 292 307 304 319 10 306 353 339 340 320 8 299 292 121 114 161 79 81 106 110 356 328 111 139 105 109 97
299 308 314 318 318 325 325 326 326 320 325 325 322 323 322 328 322 333 265 236 195 236 270 245 273 264 248 249 272 277 280 292 304 319 284 299 312 328 328 157 30 64 358 116 38 57 33 37 78 73 101 104 108 107
296 306 313 316 320 323 324 325 321 322 322 323 321 320 319 320 320 323 270 280 273 268 282 343 285 293 219 221 210 271 264 264 269 263 253 243 307 286 326 62 109 54 11 84 124 20 61 62 69 74 82 90 94 93
296 306 311 315 317 317 321 323 322 322 323 323 319 320 321 321 319 315 261 232 287 270 308 286 317 303 291 225 218 218 263 291 268 255 246 324 327 306 43 67 65 12 26 101 80 113 79 52 63 88 85 87 89 85
301 307 315 313 317 320 319 320 322 322 320 319 317 315 317 316 319 310 267 230 222 285 283 289 311 269 291 290 313 254 207 269 291 342 337 72 14 26 1 65 29 354 174 101 87 84 99 88 79 87 96 92 96 101
300 306 310 310 313 319 321 319 320 318 316 313 312 313 312 310 320 39 342 274 209 216 304 302 284 294 312 331 342 353 347 301 314 4 351 356 336 52 47 69 8 49 63 69 95 86 89 87 78 81 91 95 95 93
295 307 313 316 318 323 320 316 318 317 314 310 310 308 305 286 185 150 189 244 173 142 270 290 304 287 311 316 343 338 342 349 48 63 12 4 13 35 34 53 49 65 75 84 93 103 75 64 94 83 84 86 84 82
302 309 312 316 317 324 322 320 321 317 313 313 312 309 304 137 118 346 284 269 141 178 262 316 289 333 7 327 337 5 347 354 23 26 354 16 22 48 50 72 85 78 74 69 68 71 97 103 92 90 93 99 93 91
299 309 307 311 316 320 320 320 322 318 317 319 316 299 66 32 34 254 311 101 144 159 315 308 305 306 350 327 304 335 13 37 303 25 12 18 28 38 142 145 131 70 95 111 97 94 95 93 96 93 95 92 98 100
296 305 311 314 319 321 321 320 321 321 320 325 27 23 353 277 307 9 11 359 3 336 217 263 312 283 25 349 315 346 14 37 57 348 354 25 68 140 127 55 105 112 120 123 109 104 107 99 108 108 100 98 101 107
305 306 311 316 318 318 319 320 325 329 351 27 16 320 273 309 49 41 352 42 347 15 286 267 220 281 319 7 290 43 300 347 61 294 90 44 67 358 53 98 106 115 110 78 85 85 88 115 121 116 103 99 103 110
308 309 316 314 315 316 317 316 326 345 270 259 300 283 301 356 35 71 348 338 359 303 307 322 290 260 297 40 37 349 29 19 43 329 59 65 39 141 105 102 99 94 95 87 92 98 94 94 102 105 103 104 103 112
308 310 308 312 314 319 309 310 321 311 307 291 218 268 31 298 36 72 340 16 351 314 309 326 319 344 339 27 2 358 29 135 50 37 68 92 90 99 123 110 90 98 103 100 93 89 90 88 84 92 100 99 111 116
308 303 310 306 315 314 316 311 322 318 295 320 322 328 144 292 230 217 277 225 234 269 334 319 283 280 266 355 33 18 345 69 72 73 99 125 97 122 119 120 117 115 113 112 113 106 100 96 94 94 104 115 120 117
317 312 301 295 328 337 322 320 315 190 161 231 151 271 248 273 261 256 257 282 252 145 351 331 299 214 293 332 10 29 19 56 98 159 153 135 137 129 126 121 124 124 130 124 122 120 118 115 107 102 101 104 115 117
323 311 270 355 338 329 323 321 184 168 246 226 223 285 264 34 301 334 306 278 265 322 356 247 281 14 350 0 29 41 324 276 210 202 136 120 122 118 127 127 129 135 126 125 120 127 124 127 127 123 114 114 122 123
311 239 296 326 326 322 317 258 145 229 244 237 260 219 191 222 229 235 235 238 188 350 279 215 306 29 290 348 215 184 135 182 173 130 104 133 145 141 125 128 130 127 126 126 126 129 122 117 120 119 122 130 127 128
250 275 306 314 331 323 309 215 227 270 255 240 174 255 211 220 218 243 230 193 131 237 314 296 290 193 233 229 233 232 208 175 119 120 135 111 123 142 150 144 136 134 131 130 135 128 130 138 141 145 135 137 123 119
270 279 292 303 300 319 325 280 177 263 251 244 248 214 225 251 238 234 237 49 19 16 142 32 306 228 235 209 211 175 163 186 127 98 38 102 152 155 140 121 126 126 137 145 148 154 161 165 162 153 150 148 143 145
290 292 292 299 152 228 255 263 207 261 263 250 280 263 225 232 222 153 156 174 180 173 285 229 238 233 238 237 141 139 132 110 110 102 73 61 84 130 146 151 145 126 120 120 108 124 134 141 149 153 159 159 152 163
324 308 354 106 157 194 222 288 254 245 290 260 268 338 271 197 173 150 191 158 222 202 236 226 250 271 226 139 112 113 106 113 131 120 131 104 62 109 110 100 119 128 137 146 154 167 164 191 169 161 160 168 168 159
264 311 348 261 214 202 239 232 230 295 317 258 314 200 262 236 215 214 149 198 226 217 184 193 163 151 118 119 140 132 153 134 104 98 88 120 118 116 125 141 131 145 157 168 159 163 176 158 143 145 151 150 148 145
304 173 215 264 286 134 258 38 218 209 225 262 301 270 246 226 183 124 226 210 240 220 178 184 184 147 144 137 128 118 145 141 138 137 128 109 103 108 120 149 145 147 156 184 157 154 147 134 122 128 128 134 143 133
223 240 230 208 196 251 297 244 228 252 285 286 247 263 227 159 154 124 232 230 241 144 160 180 138 110 83 111 154 176 167 146 129 111 133 129 136 171 163 171 177 187 168 136 145 143 142 142 132 134 142 140 156 162
158 233 199 260 270 254 211 241 231 234 248 227 239 263 209 137 157 245 229 246 181 187 193 169 158 154 149 170 129 152 164 157 166 164 181 155 116 85 84 92 211 215 152 137 153 157 152 142 148 155 166 164 169 178
246 214 203 235 211 199 217 200 209 213 246 260 237 283 50 108 161 240 239 208 204 178 171 171 159 150 197 180 161 175 201 168 133 140 184 173 173 164 179 179 190 239 189 159 145 153 157 160 162 173 189 199 184 174
245 263 231 228 268 282 257 293 217 163 247 244 266 21 141 210 240 256 278 225 192 226 196 171 159 168 188 184 189 126 142 152 167 179 139 159 166 171 162 167 192 210 152 150 151 156 166 173 180 189 195 187 195 190
246 277 222 319 281 201 154 267 251 212 236 222 105 188 219 205 243 236 212 250 200 161 123 178 179 188 173 196 153 122 96 99 85 86 81 65 59 97 118 101 112 146 148 156 160 148 161 166 166 168 172 184 192 184
243 263 138 254 266 234 219 209 235 228 183 151 162 232 243 224 216 188 221 198 171 111 128 253 230 89 69 81 97 110 140 144 130 151 180 186 174 242 164 146 150 154 141 139 120 146 162 159 163 163 156 157 149 130
249 174 201 229 211 230 240 178 217 220 196 178 248 317 309 290 240 157 125 128 159 227 228 217 193 153 162 158 146 143 204 228 211 150 167 191 208 165 153 159 160 150 134 129 121 110 98 102 106 97 110 113 125 128
193 165 228 231 255 248 250 189 182 127 195 207 215 193 225 283 328 256 201 191 180 167 158 200 205 208 164 158 159 157 204 230 205 154 107 114 138 141 145 148 140 134 136 139 146 142 131 129 139 139 142 146 156 154
197 206 200 225 268 290 237 152 168 196 236 197 228 109 17 36 318 292 254 137 147 203 231 232 204 236 209 196 188 207 195 148 161 159 150 144 138 136 130 125 126 125 123 121 122 128 141 140 145 152 157 161 165 165
203 201 207 207 315 263 214 106 237 278 220 255 287 174 189 181 224 262 293 211 204 214 222 229 223 236 205 185 184 173 172 160 152 149 146 141 143 139 135 133 127 124 122 120 122 128 131 138 141 150 156 155 146 137